Location: Riverside Cemetery
(38.3047°N, 99.7773°W)
Time: 07:29:54
(UTC+00:00)

Cosmos 1844 - Pass Details

Date: 19 September 2020
Orbit: 824 x 866 km, 70.9° (Epoch: 21 October)

Event Time Altitude Azimuth Distance (km) Brightness Sun altitude
Rises 02:10:55 0° 185° (S) 3,416 6.7 -18.1°
Reaches altitude 10° 02:13:27 10° 179° (S) 2,478 6.0 -18.6°
Maximum altitude 02:18:53 48° 107° (ESE) 1,101 3.8 -19.6°
Drops below altitude 10° 02:24:17 10° 34° (NE) 2,466 6.0 -20.6°
Sets 02:26:48 0° 29° (NNE) 3,399 6.8 -21.1°
